Time,TemperatureF,DewpointF,PressureIn,WindDirection,WindDirectionDegrees,WindSpeedMPH,WindSpeedGustMPH,Humidity,HourlyPrecipIn,Conditions,Clouds,dailyrainin,SoftwareType,DateUTC
2013-02-18 00:00:00,39.4,29.7,30.32,NW,316,0.0,1.0,68,0.00,,,0.00,meteohub,2013-02-18 05:00:00,
2013-02-18 00:01:00,39.4,29.7,30.32,NW,316,0.0,1.0,68,0.00,,,0.00,meteohub,2013-02-18 05:01:00,
2013-02-18 00:02:00,39.4,30.0,30.32,NW,316,0.0,1.0,69,0.00,,,0.00,meteohub,2013-02-18 05:02:00,
2013-02-18 00:07:00,39.4,30.0,30.32,NW,316,0.0,0.0,69,0.00,,,0.00,meteohub,2013-02-18 05:07:00,
2013-02-18 00:12:00,39.0,29.7,30.32,NW,316,0.0,0.0,69,0.00,,,0.00,meteohub,2013-02-18 05:12:00,
2013-02-18 00:17:00,38.8,30.2,30.32,NW,316,0.0,0.0,71,0.00,,,0.00,meteohub,2013-02-18 05:17:00,
2013-02-18 00:22:00,38.7,30.0,30.32,NW,316,0.0,0.0,71,0.00,,,0.00,meteohub,2013-02-18 05:22:00,
2013-02-18 00:27:00,38.5,30.2,30.32,NW,316,0.0,0.0,72,0.00,,,0.00,meteohub,2013-02-18 05:27:00,
2013-02-18 00:32:00,38.5,30.9,30.32,NW,316,0.0,1.0,74,0.00,,,0.00,meteohub,2013-02-18 05:32:00,
2013-02-18 00:37:00,38.7,30.7,30.32,NW,316,1.0,1.0,73,0.00,,,0.00,meteohub,2013-02-18 05:37:00,
2013-02-18 00:42:00,39.2,31.3,30.32,NW,316,0.0,2.0,73,0.00,,,0.00,meteohub,2013-02-18 05:42:00,
2013-02-18 00:47:00,39.7,31.5,30.32,NW,316,1.0,2.0,72,0.00,,,0.00,meteohub,2013-02-18 05:47:00,
2013-02-18 00:52:00,40.3,31.6,30.32,NW,316,0.0,2.0,71,0.00,,,0.00,meteohub,2013-02-18 05:52:00,
2013-02-18 00:57:00,40.6,31.6,30.32,NW,316,1.0,2.0,70,0.00,,,0.00,meteohub,2013-02-18 05:57:00,
2013-02-18 01:02:00,40.8,31.5,30.32,NW,316,0.0,2.0,69,0.00,,,0.00,meteohub,2013-02-18 06:02:00,
2013-02-18 01:07:00,41.2,31.5,30.32,NW,316,0.0,2.0,68,0.00,,,0.00,meteohub,2013-02-18 06:07:00,
2013-02-18 01:12:00,41.4,31.3,30.32,NW,316,0.0,2.0,67,0.00,,,0.00,meteohub,2013-02-18 06:12:00,
2013-02-18 01:17:00,41.4,31.3,30.32,NW,316,1.0,3.0,67,0.00,,,0.00,meteohub,2013-02-18 06:17:00,
2013-02-18 01:22:00,41.5,31.1,30.32,NW,316,0.0,3.0,66,0.00,,,0.00,meteohub,2013-02-18 06:22:00,
2013-02-18 01:27:00,41.5,31.1,30.32,NW,316,0.0,3.0,66,0.00,,,0.00,meteohub,2013-02-18 06:27:00,
2013-02-18 01:32:00,41.7,31.3,30.32,NW,316,0.0,3.0,66,0.00,,,0.00,meteohub,2013-02-18 06:32:00,
2013-02-18 01:37:00,41.7,31.3,30.32,NW,316,1.0,3.0,66,0.00,,,0.00,meteohub,2013-02-18 06:37:00,
2013-02-18 01:42:00,41.7,31.3,30.32,NW,316,1.0,3.0,66,0.00,,,0.00,meteohub,2013-02-18 06:42:00,
2013-02-18 01:47:00,41.7,31.3,30.32,NW,316,3.0,4.0,66,0.00,,,0.00,meteohub,2013-02-18 06:47:00,
2013-02-18 01:52:00,41.7,31.3,30.32,NW,316,1.0,4.0,66,0.00,,,0.00,meteohub,2013-02-18 06:52:00,
2013-02-18 01:57:00,41.9,31.5,30.32,NW,316,1.0,4.0,66,0.00,,,0.00,meteohub,2013-02-18 06:57:00,
2013-02-18 02:02:00,41.9,31.5,30.32,NW,316,2.0,3.0,66,0.00,,,0.00,meteohub,2013-02-18 07:02:00,
2013-02-18 02:07:00,41.7,31.3,30.32,NW,316,1.0,5.0,66,0.00,,,0.00,meteohub,2013-02-18 07:07:00,
2013-02-18 02:12:00,41.5,31.5,30.32,NW,316,2.0,5.0,67,0.00,,,0.00,meteohub,2013-02-18 07:12:00,
2013-02-18 02:17:00,41.7,32.4,30.31,NW,316,3.0,5.0,69,0.00,,,0.00,meteohub,2013-02-18 07:17:00,
2013-02-18 02:22:00,41.5,31.8,30.31,NW,316,2.0,4.0,68,0.00,,,0.00,meteohub,2013-02-18 07:22:00,
2013-02-18 02:27:00,41.5,31.8,30.31,NW,316,1.0,4.0,68,0.00,,,0.00,meteohub,2013-02-18 07:27:00,
2013-02-18 02:32:00,41.4,31.6,30.31,NW,316,2.0,3.0,68,0.00,,,0.00,meteohub,2013-02-18 07:32:00,
2013-02-18 02:37:00,41.2,31.8,30.31,NW,316,0.0,4.0,69,0.00,,,0.00,meteohub,2013-02-18 07:37:00,
2013-02-18 02:42:00,41.0,32.0,30.31,NW,316,1.0,4.0,70,0.00,,,0.00,meteohub,2013-02-18 07:42:00,
2013-02-18 02:47:00,40.6,32.0,30.31,NW,316,2.0,4.0,71,0.00,,,0.00,meteohub,2013-02-18 07:47:00,
2013-02-18 02:52:00,40.6,32.0,30.31,NW,316,1.0,4.0,71,0.00,,,0.00,meteohub,2013-02-18 07:52:00,
2013-02-18 02:57:00,40.5,31.8,30.31,NW,316,2.0,4.0,71,0.00,,,0.00,meteohub,2013-02-18 07:57:00,
2013-02-18 03:02:00,40.3,32.0,30.31,NW,316,1.0,3.0,72,0.00,,,0.00,meteohub,2013-02-18 08:02:00,
2013-02-18 03:07:00,40.1,31.8,30.31,NW,316,1.0,3.0,72,0.00,,,0.00,meteohub,2013-02-18 08:07:00,
2013-02-18 03:12:00,39.9,32.0,30.31,NW,316,2.0,3.0,73,0.00,,,0.00,meteohub,2013-02-18 08:12:00,
2013-02-18 03:17:00,39.7,31.8,30.31,NW,316,0.0,3.0,73,0.00,,,0.00,meteohub,2013-02-18 08:17:00,
2013-02-18 03:22:00,39.6,32.0,30.31,NW,316,2.0,3.0,74,0.00,,,0.00,meteohub,2013-02-18 08:22:00,
2013-02-18 03:27:00,39.4,32.2,30.31,NW,316,2.0,3.0,75,0.00,,,0.00,meteohub,2013-02-18 08:27:00,
2013-02-18 03:32:00,39.4,32.2,30.31,NW,316,1.0,3.0,75,0.00,,,0.00,meteohub,2013-02-18 08:32:00,
2013-02-18 03:37:00,39.4,32.2,30.31,NW,316,1.0,3.0,75,0.00,,,0.00,meteohub,2013-02-18 08:37:00,
2013-02-18 03:42:00,39.4,32.2,30.30,NW,316,2.0,3.0,75,0.00,,,0.00,meteohub,2013-02-18 08:42:00,
2013-02-18 03:47:00,39.4,32.2,30.31,NW,316,1.0,3.0,75,0.00,,,0.00,meteohub,2013-02-18 08:47:00,
2013-02-18 03:52:00,39.4,31.8,30.30,NW,316,2.0,3.0,74,0.00,,,0.00,meteohub,2013-02-18 08:52:00,
2013-02-18 03:57:00,39.4,31.8,30.30,NW,316,1.0,4.0,74,0.00,,,0.00,meteohub,2013-02-18 08:57:00,
2013-02-18 04:02:00,39.4,31.8,30.30,NW,316,3.0,4.0,74,0.00,,,0.00,meteohub,2013-02-18 09:02:00,
2013-02-18 04:07:00,39.4,31.5,30.30,NW,316,1.0,4.0,73,0.00,,,0.00,meteohub,2013-02-18 09:07:00,
2013-02-18 04:12:00,39.6,31.3,30.31,NW,316,2.0,3.0,72,0.00,,,0.00,meteohub,2013-02-18 09:12:00,
2013-02-18 04:17:00,39.4,31.1,30.30,NW,316,0.0,4.0,72,0.00,,,0.00,meteohub,2013-02-18 09:17:00,
2013-02-18 04:22:00,39.2,30.9,30.30,NW,316,2.0,4.0,72,0.00,,,0.00,meteohub,2013-02-18 09:22:00,
2013-02-18 04:27:00,39.0,31.1,30.30,NW,316,0.0,4.0,73,0.00,,,0.00,meteohub,2013-02-18 09:27:00,
2013-02-18 04:32:00,38.8,31.3,30.30,NW,316,2.0,3.0,74,0.00,,,0.00,meteohub,2013-02-18 09:32:00,
2013-02-18 04:37:00,38.8,31.3,30.30,NW,316,1.0,3.0,74,0.00,,,0.00,meteohub,2013-02-18 09:37:00,
2013-02-18 04:42:00,38.8,31.3,30.30,NW,316,0.0,2.0,74,0.00,,,0.00,meteohub,2013-02-18 09:42:00,
2013-02-18 04:47:00,38.8,31.6,30.30,NW,316,1.0,3.0,75,0.00,,,0.00,meteohub,2013-02-18 09:47:00,
2013-02-18 04:52:00,38.7,31.1,30.30,NW,316,1.0,3.0,74,0.00,,,0.00,meteohub,2013-02-18 09:52:00,
2013-02-18 04:57:00,38.7,31.1,30.30,NW,316,2.0,3.0,74,0.00,,,0.00,meteohub,2013-02-18 09:57:00,
2013-02-18 05:02:00,38.8,30.9,30.30,NW,316,1.0,3.0,73,0.00,,,0.00,meteohub,2013-02-18 10:02:00,
2013-02-18 05:07:00,39.0,30.7,30.30,NW,316,2.0,4.0,72,0.00,,,0.00,meteohub,2013-02-18 10:07:00,
2013-02-18 05:12:00,39.0,30.0,30.30,NW,316,2.0,4.0,70,0.00,,,0.00,meteohub,2013-02-18 10:12:00,
2013-02-18 05:17:00,39.4,30.4,30.30,NW,316,2.0,4.0,70,0.00,,,0.00,meteohub,2013-02-18 10:17:00,
2013-02-18 05:22:00,39.4,30.0,30.30,NW,316,1.0,4.0,69,0.00,,,0.00,meteohub,2013-02-18 10:22:00,
2013-02-18 05:28:00,39.4,29.7,30.30,NW,316,2.0,4.0,68,0.00,,,0.00,meteohub,2013-02-18 10:28:00,
2013-02-18 05:33:00,39.4,29.7,30.31,NW,316,2.0,4.0,68,0.00,,,0.00,meteohub,2013-02-18 10:33:00,
2013-02-18 05:38:00,39.4,29.7,30.31,NW,316,2.0,3.0,68,0.00,,,0.00,meteohub,2013-02-18 10:38:00,
2013-02-18 05:43:00,39.2,29.5,30.31,NW,316,2.0,4.0,68,0.00,,,0.00,meteohub,2013-02-18 10:43:00,
2013-02-18 05:48:00,39.0,29.3,30.31,NW,316,1.0,4.0,68,0.00,,,0.00,meteohub,2013-02-18 10:48:00,
2013-02-18 05:54:00,38.7,28.9,30.31,NW,316,2.0,3.0,68,0.00,,,0.00,meteohub,2013-02-18 10:54:00,
2013-02-18 05:59:00,38.5,29.1,30.31,NW,316,0.0,3.0,69,0.00,,,0.00,meteohub,2013-02-18 10:59:00,
2013-02-18 06:04:00,38.1,29.1,30.31,NW,316,1.0,2.0,70,0.00,,,0.00,meteohub,2013-02-18 11:04:00,
2013-02-18 06:09:00,38.1,29.1,30.31,NW,316,1.0,2.0,70,0.00,,,0.00,meteohub,2013-02-18 11:09:00,
2013-02-18 06:14:00,38.1,29.1,30.31,NW,316,1.0,2.0,70,0.00,,,0.00,meteohub,2013-02-18 11:14:00,
2013-02-18 06:19:00,38.3,29.3,30.31,NW,316,1.0,2.0,70,0.00,,,0.00,meteohub,2013-02-18 11:19:00,
2013-02-18 06:24:00,38.5,29.1,30.32,NW,316,1.0,2.0,69,0.00,,,0.00,meteohub,2013-02-18 11:24:00,
2013-02-18 06:30:00,38.5,29.5,30.32,NW,316,2.0,3.0,70,0.00,,,0.00,meteohub,2013-02-18 11:30:00,
2013-02-18 06:35:00,38.3,29.3,30.32,NW,316,1.0,3.0,70,0.00,,,0.00,meteohub,2013-02-18 11:35:00,
2013-02-18 06:40:00,38.1,29.5,30.32,NW,316,2.0,3.0,71,0.00,,,0.00,meteohub,2013-02-18 11:40:00,
2013-02-18 06:45:00,37.9,29.3,30.32,NW,316,0.0,3.0,71,0.00,,,0.00,meteohub,2013-02-18 11:45:00,
2013-02-18 06:50:00,37.8,29.1,30.32,NW,316,1.0,3.0,71,0.00,,,0.00,meteohub,2013-02-18 11:50:00,
2013-02-18 06:55:00,37.6,29.3,30.32,NW,316,2.0,2.0,72,0.00,,,0.00,meteohub,2013-02-18 11:55:00,
2013-02-18 07:00:00,37.6,29.3,30.32,NW,316,0.0,3.0,72,0.00,,,0.00,meteohub,2013-02-18 12:00:00,
2013-02-18 07:05:00,37.6,29.7,30.32,NW,316,1.0,3.0,73,0.00,,,0.00,meteohub,2013-02-18 12:05:00,
2013-02-18 07:10:00,37.6,29.7,30.32,NW,316,0.0,2.0,73,0.00,,,0.00,meteohub,2013-02-18 12:10:00,
2013-02-18 07:15:00,37.6,29.3,30.32,NW,316,1.0,2.0,72,0.00,,,0.00,meteohub,2013-02-18 12:15:00,
2013-02-18 07:20:00,37.4,29.1,30.32,NW,316,1.0,2.0,72,0.00,,,0.00,meteohub,2013-02-18 12:20:00,
2013-02-18 07:25:00,37.8,30.2,30.32,NW,316,3.0,3.0,74,0.00,,,0.00,meteohub,2013-02-18 12:25:00,
2013-02-18 07:31:00,38.5,30.6,30.32,NW,316,1.0,3.0,73,0.00,,,0.00,meteohub,2013-02-18 12:31:00,
2013-02-18 07:36:00,38.8,30.9,30.33,NW,316,2.0,3.0,73,0.00,,,0.00,meteohub,2013-02-18 12:36:00,
2013-02-18 07:41:00,39.2,30.9,30.33,NW,316,1.0,3.0,72,0.00,,,0.00,meteohub,2013-02-18 12:41:00,
2013-02-18 07:46:00,39.6,30.9,30.33,NW,316,1.0,3.0,71,0.00,,,0.00,meteohub,2013-02-18 12:46:00,
2013-02-18 07:51:00,39.7,30.7,30.33,NW,316,1.0,3.0,70,0.00,,,0.00,meteohub,2013-02-18 12:51:00,
2013-02-18 07:57:00,40.3,30.6,30.33,NW,316,2.0,2.0,68,0.00,,,0.00,meteohub,2013-02-18 12:57:00,
2013-02-18 08:02:00,40.8,30.7,30.33,NW,316,2.0,4.0,67,0.00,,,0.00,meteohub,2013-02-18 13:02:00,
2013-02-18 08:07:00,41.7,30.7,30.33,NW,316,1.0,4.0,65,0.00,,,0.00,meteohub,2013-02-18 13:07:00,
2013-02-18 08:12:00,42.8,31.5,30.33,NW,316,1.0,4.0,64,0.00,,,0.00,meteohub,2013-02-18 13:12:00,
2013-02-18 08:17:00,43.7,31.5,30.34,NW,316,2.0,4.0,62,0.00,,,0.00,meteohub,2013-02-18 13:17:00,
2013-02-18 08:22:00,45.0,32.0,30.33,NW,316,3.0,4.0,60,0.00,,,0.00,meteohub,2013-02-18 13:22:00,
2013-02-18 08:27:00,45.7,32.5,30.34,NW,316,1.0,4.0,60,0.00,,,0.00,meteohub,2013-02-18 13:27:00,
2013-02-18 08:32:00,46.6,32.5,30.33,NW,316,3.0,4.0,58,0.00,,,0.00,meteohub,2013-02-18 13:32:00,
2013-02-18 08:37:00,46.9,32.0,30.33,ENE,74,3.0,4.0,56,0.00,,,0.00,meteohub,2013-02-18 13:37:00,
2013-02-18 08:42:00,47.8,32.5,30.33,ENE,74,2.0,4.0,55,0.00,,,0.00,meteohub,2013-02-18 13:42:00,
2013-02-18 08:47:00,48.7,31.8,30.33,ENE,74,2.0,4.0,52,0.00,,,0.00,meteohub,2013-02-18 13:47:00,
2013-02-18 08:52:00,50.0,30.6,30.33,ENE,74,3.0,4.0,47,0.00,,,0.00,meteohub,2013-02-18 13:52:00,
2013-02-18 08:57:00,50.5,30.0,30.33,East,90,3.0,5.0,45,0.00,,,0.00,meteohub,2013-02-18 13:57:00,
2013-02-18 09:02:00,50.4,29.8,30.33,ENE,78,4.0,6.0,45,0.00,,,0.00,meteohub,2013-02-18 14:02:00,
2013-02-18 09:07:00,50.7,27.9,30.32,ENE,74,5.0,6.0,41,0.00,,,0.00,meteohub,2013-02-18 14:07:00,
2013-02-18 09:13:00,51.1,28.2,30.33,ENE,74,1.0,7.0,41,0.00,,,0.00,meteohub,2013-02-18 14:13:00,
2013-02-18 09:18:00,51.4,26.6,30.33,ESE,107,8.0,8.0,38,0.00,,,0.00,meteohub,2013-02-18 14:18:00,
2013-02-18 09:23:00,51.6,26.2,30.33,East,85,6.0,8.0,37,0.00,,,0.00,meteohub,2013-02-18 14:23:00,
2013-02-18 09:28:00,51.4,25.3,30.33,ENE,74,7.0,9.0,36,0.00,,,0.00,meteohub,2013-02-18 14:28:00,
2013-02-18 09:33:00,51.6,27.5,30.33,NE,40,4.0,9.0,39,0.00,,,0.00,meteohub,2013-02-18 14:33:00,
2013-02-18 09:38:00,52.3,27.5,30.32,ENE,67,4.0,9.0,38,0.00,,,0.00,meteohub,2013-02-18 14:38:00,
2013-02-18 09:43:00,52.9,26.6,30.32,ESE,104,4.0,9.0,36,0.00,,,0.00,meteohub,2013-02-18 14:43:00,
2013-02-18 09:48:00,53.8,26.1,30.33,East,85,8.0,8.0,34,0.00,,,0.00,meteohub,2013-02-18 14:48:00,
2013-02-18 09:53:00,53.8,25.3,30.33,ENE,66,5.0,8.0,33,0.00,,,0.00,meteohub,2013-02-18 14:53:00,
2013-02-18 09:58:00,54.0,25.5,30.33,East,83,5.0,9.0,33,0.00,,,0.00,meteohub,2013-02-18 14:58:00,
2013-02-18 10:03:00,54.9,25.5,30.33,ENE,60,7.0,9.0,32,0.00,,,0.00,meteohub,2013-02-18 15:03:00,
2013-02-18 10:08:00,55.0,25.7,30.33,East,90,2.0,9.0,32,0.00,,,0.00,meteohub,2013-02-18 15:08:00,
2013-02-18 10:14:00,55.2,25.9,30.33,ENE,72,5.0,9.0,32,0.00,,,0.00,meteohub,2013-02-18 15:14:00,
2013-02-18 10:19:00,55.6,27.0,30.34,ENE,78,4.0,9.0,33,0.00,,,0.00,meteohub,2013-02-18 15:19:00,
2013-02-18 10:24:00,56.1,26.6,30.34,ESE,109,5.0,8.0,32,0.00,,,0.00,meteohub,2013-02-18 15:24:00,
2013-02-18 10:29:00,56.3,26.8,30.34,ESE,112,5.0,10.0,32,0.00,,,0.00,meteohub,2013-02-18 15:29:00,
2013-02-18 10:34:00,56.8,28.0,30.34,ESE,118,4.0,10.0,33,0.00,,,0.00,meteohub,2013-02-18 15:34:00,
2013-02-18 10:39:00,57.0,27.5,30.33,SE,133,4.0,10.0,32,0.00,,,0.00,meteohub,2013-02-18 15:39:00,
2013-02-18 10:44:00,57.4,27.7,30.33,ESE,112,5.0,10.0,32,0.00,,,0.00,meteohub,2013-02-18 15:44:00,
2013-02-18 10:49:00,57.2,28.4,30.33,SE,129,3.0,10.0,33,0.00,,,0.00,meteohub,2013-02-18 15:49:00,
2013-02-18 10:54:00,57.9,29.7,30.34,SE,128,4.0,10.0,34,0.00,,,0.00,meteohub,2013-02-18 15:54:00,
2013-02-18 10:59:00,58.6,30.4,30.33,NE,53,9.0,9.0,34,0.00,,,0.00,meteohub,2013-02-18 15:59:00,
2013-02-18 11:05:00,58.6,30.4,30.33,East,98,5.0,8.0,34,0.00,,,0.00,meteohub,2013-02-18 16:05:00,
2013-02-18 11:10:00,58.6,31.1,30.33,ENE,70,5.0,10.0,35,0.00,,,0.00,meteohub,2013-02-18 16:10:00,
2013-02-18 11:15:00,58.3,30.7,30.33,East,94,2.0,10.0,35,0.00,,,0.00,meteohub,2013-02-18 16:15:00,
2013-02-18 11:20:00,58.6,31.8,30.33,East,99,3.0,10.0,36,0.00,,,0.00,meteohub,2013-02-18 16:20:00,
2013-02-18 11:25:00,59.2,32.9,30.33,ESE,104,3.0,9.0,37,0.00,,,0.00,meteohub,2013-02-18 16:25:00,
2013-02-18 11:31:00,59.4,33.8,30.33,ESE,115,4.0,9.0,38,0.00,,,0.00,meteohub,2013-02-18 16:31:00,
2013-02-18 11:36:00,59.7,34.0,30.32,ESE,118,5.0,9.0,38,0.00,,,0.00,meteohub,2013-02-18 16:36:00,
2013-02-18 11:41:00,60.1,34.3,30.32,ESE,117,2.0,9.0,38,0.00,,,0.00,meteohub,2013-02-18 16:41:00,
2013-02-18 11:46:00,60.6,34.9,30.32,ENE,76,5.0,9.0,38,0.00,,,0.00,meteohub,2013-02-18 16:46:00,
2013-02-18 11:51:00,60.3,35.2,30.31,ENE,65,3.0,9.0,39,0.00,,,0.00,meteohub,2013-02-18 16:51:00,
2013-02-18 11:56:00,60.4,35.4,30.31,ENE,69,3.0,9.0,39,0.00,,,0.00,meteohub,2013-02-18 16:56:00,
2013-02-18 12:01:00,60.4,35.4,30.31,ESE,114,8.0,9.0,39,0.00,,,0.00,meteohub,2013-02-18 17:01:00,
2013-02-18 12:07:00,60.4,34.7,30.31,ESE,106,4.0,11.0,38,0.00,,,0.00,meteohub,2013-02-18 17:07:00,
2013-02-18 12:12:00,60.6,35.6,30.30,East,94,3.0,11.0,39,0.00,,,0.00,meteohub,2013-02-18 17:12:00,
2013-02-18 12:17:00,61.2,36.0,30.30,ESE,119,3.0,11.0,39,0.00,,,0.00,meteohub,2013-02-18 17:17:00,
2013-02-18 12:22:00,61.3,36.1,30.29,SE,126,6.0,9.0,39,0.00,,,0.00,meteohub,2013-02-18 17:22:00,
2013-02-18 12:27:00,61.9,36.7,30.29,ESE,105,4.0,9.0,39,0.00,,,0.00,meteohub,2013-02-18 17:27:00,
2013-02-18 12:32:00,62.1,37.4,30.29,East,89,6.0,9.0,40,0.00,,,0.00,meteohub,2013-02-18 17:32:00,
2013-02-18 12:37:00,61.9,37.2,30.28,ENE,57,7.0,9.0,40,0.00,,,0.00,meteohub,2013-02-18 17:37:00,
2013-02-18 12:42:00,62.1,37.4,30.28,East,80,5.0,10.0,40,0.00,,,0.00,meteohub,2013-02-18 17:42:00,
2013-02-18 12:47:00,62.2,37.6,30.28,ESE,103,3.0,10.0,40,0.00,,,0.00,meteohub,2013-02-18 17:47:00,
2013-02-18 12:53:00,62.8,38.1,30.27,SE,136,5.0,9.0,40,0.00,,,0.00,meteohub,2013-02-18 17:53:00,
2013-02-18 12:58:00,63.5,38.7,30.27,ESE,105,7.0,9.0,40,0.00,,,0.00,meteohub,2013-02-18 17:58:00,
2013-02-18 13:03:00,63.7,38.8,30.27,SE,144,4.0,8.0,40,0.00,,,0.00,meteohub,2013-02-18 18:03:00,
2013-02-18 13:08:00,63.9,39.0,30.27,ESE,109,7.0,9.0,40,0.00,,,0.00,meteohub,2013-02-18 18:08:00,
2013-02-18 13:13:00,63.9,39.0,30.26,East,94,3.0,9.0,40,0.00,,,0.00,meteohub,2013-02-18 18:13:00,
2013-02-18 13:18:00,64.4,40.1,30.26,ESE,119,7.0,9.0,41,0.00,,,0.00,meteohub,2013-02-18 18:18:00,
2013-02-18 13:24:00,64.4,39.6,30.26,East,96,6.0,9.0,40,0.00,,,0.00,meteohub,2013-02-18 18:24:00,
2013-02-18 13:29:00,64.2,40.6,30.25,ESE,118,5.0,9.0,42,0.00,,,0.00,meteohub,2013-02-18 18:29:00,
2013-02-18 13:34:00,64.6,41.0,30.25,East,97,6.0,9.0,42,0.00,,,0.00,meteohub,2013-02-18 18:34:00,
2013-02-18 13:40:00,64.6,41.0,30.25,SE,146,4.0,10.0,42,0.00,,,0.00,meteohub,2013-02-18 18:40:00,
2013-02-18 13:45:00,64.6,41.0,30.25,East,98,7.0,10.0,42,0.00,,,0.00,meteohub,2013-02-18 18:45:00,
2013-02-18 13:50:00,64.8,41.7,30.25,ENE,74,4.0,10.0,43,0.00,,,0.00,meteohub,2013-02-18 18:50:00,
2013-02-18 13:56:00,65.3,41.5,30.24,SE,140,7.0,10.0,42,0.00,,,0.00,meteohub,2013-02-18 18:56:00,
2013-02-18 14:01:00,65.8,42.8,30.24,ESE,120,5.0,10.0,43,0.00,,,0.00,meteohub,2013-02-18 19:01:00,
2013-02-18 14:06:00,66.0,42.8,30.23,East,79,6.0,8.0,43,0.00,,,0.00,meteohub,2013-02-18 19:06:00,
2013-02-18 14:11:00,66.2,43.0,30.23,East,93,5.0,8.0,43,0.00,,,0.00,meteohub,2013-02-18 19:11:00,
2013-02-18 14:16:00,66.4,43.2,30.23,ESE,109,7.0,9.0,43,0.00,,,0.00,meteohub,2013-02-18 19:16:00,
2013-02-18 14:21:00,66.2,43.0,30.23,East,80,3.0,9.0,43,0.00,,,0.00,meteohub,2013-02-18 19:21:00,
2013-02-18 14:26:00,66.6,43.3,30.23,ENE,78,5.0,9.0,43,0.00,,,0.00,meteohub,2013-02-18 19:26:00,
2013-02-18 14:32:00,67.1,44.4,30.23,SSE,148,4.0,9.0,44,0.00,,,0.00,meteohub,2013-02-18 19:32:00,
2013-02-18 14:37:00,67.6,44.4,30.23,SE,142,2.0,9.0,43,0.00,,,0.00,meteohub,2013-02-18 19:37:00,
2013-02-18 14:42:00,67.8,43.9,30.23,East,100,5.0,9.0,42,0.00,,,0.00,meteohub,2013-02-18 19:42:00,
2013-02-18 14:47:00,67.3,44.1,30.22,East,101,5.0,9.0,43,0.00,,,0.00,meteohub,2013-02-18 19:47:00,
2013-02-18 14:52:00,66.9,43.7,30.22,East,100,5.0,9.0,43,0.00,,,0.00,meteohub,2013-02-18 19:52:00,
2013-02-18 14:57:00,66.9,44.2,30.22,SE,125,4.0,10.0,44,0.00,,,0.00,meteohub,2013-02-18 19:57:00,
2013-02-18 15:02:00,66.9,45.0,30.22,East,98,8.0,13.0,45,0.00,,,0.00,meteohub,2013-02-18 20:02:00,
2013-02-18 15:07:00,66.9,44.2,30.22,ESE,123,4.0,13.0,44,0.00,,,0.00,meteohub,2013-02-18 20:07:00,
2013-02-18 15:13:00,67.3,44.6,30.22,East,101,6.0,13.0,44,0.00,,,0.00,meteohub,2013-02-18 20:13:00,
2013-02-18 15:18:00,67.6,45.0,30.22,ESE,123,5.0,10.0,44,0.00,,,0.00,meteohub,2013-02-18 20:18:00,
2013-02-18 15:23:00,67.8,44.4,30.22,ENE,62,7.0,9.0,43,0.00,,,0.00,meteohub,2013-02-18 20:23:00,
2013-02-18 15:28:00,67.6,45.0,30.22,ESE,108,4.0,9.0,44,0.00,,,0.00,meteohub,2013-02-18 20:28:00,
2013-02-18 15:33:00,68.0,44.6,30.21,ENE,69,4.0,9.0,43,0.00,,,0.00,meteohub,2013-02-18 20:33:00,
2013-02-18 15:38:00,68.2,44.8,30.21,ENE,61,8.0,8.0,43,0.00,,,0.00,meteohub,2013-02-18 20:38:00,
2013-02-18 15:44:00,67.8,44.4,30.21,East,94,5.0,9.0,43,0.00,,,0.00,meteohub,2013-02-18 20:44:00,
2013-02-18 15:49:00,67.6,45.0,30.21,ESE,115,3.0,9.0,44,0.00,,,0.00,meteohub,2013-02-18 20:49:00,
2013-02-18 15:54:00,67.8,44.4,30.21,ENE,72,5.0,9.0,43,0.00,,,0.00,meteohub,2013-02-18 20:54:00,
2013-02-18 15:59:00,67.8,45.7,30.21,ESE,116,5.0,9.0,45,0.00,,,0.00,meteohub,2013-02-18 20:59:00,
2013-02-18 16:04:00,68.2,44.8,30.21,ESE,106,7.0,10.0,43,0.00,,,0.00,meteohub,2013-02-18 21:04:00,
2013-02-18 16:09:00,68.2,45.5,30.21,SE,130,4.0,10.0,44,0.00,,,0.00,meteohub,2013-02-18 21:09:00,
2013-02-18 16:14:00,68.2,44.8,30.21,ESE,103,4.0,10.0,43,0.00,,,0.00,meteohub,2013-02-18 21:14:00,
2013-02-18 16:19:00,68.0,44.6,30.21,East,94,5.0,9.0,43,0.00,,,0.00,meteohub,2013-02-18 21:19:00,
2013-02-18 16:25:00,67.8,45.1,30.21,SE,136,5.0,9.0,44,0.00,,,0.00,meteohub,2013-02-18 21:25:00,
2013-02-18 16:30:00,67.5,44.8,30.21,East,90,2.0,8.0,44,0.00,,,0.00,meteohub,2013-02-18 21:30:00,
2013-02-18 16:35:00,67.6,45.0,30.21,ESE,107,5.0,9.0,44,0.00,,,0.00,meteohub,2013-02-18 21:35:00,
2013-02-18 16:41:00,67.8,45.1,30.21,ESE,107,3.0,9.0,44,0.00,,,0.00,meteohub,2013-02-18 21:41:00,
2013-02-18 16:46:00,67.8,45.1,30.21,SE,128,1.0,8.0,44,0.00,,,0.00,meteohub,2013-02-18 21:46:00,
2013-02-18 16:51:00,67.8,45.1,30.21,East,96,5.0,7.0,44,0.00,,,0.00,meteohub,2013-02-18 21:51:00,
2013-02-18 16:56:00,68.0,45.3,30.21,ESE,105,3.0,8.0,44,0.00,,,0.00,meteohub,2013-02-18 21:56:00,
2013-02-18 17:01:00,67.8,45.1,30.20,ESE,105,2.0,8.0,44,0.00,,,0.00,meteohub,2013-02-18 22:01:00,
2013-02-18 17:07:00,67.8,45.7,30.20,ESE,105,2.0,7.0,45,0.00,,,0.00,meteohub,2013-02-18 22:07:00,
2013-02-18 17:12:00,67.5,45.3,30.20,ESE,105,3.0,7.0,45,0.00,,,0.00,meteohub,2013-02-18 22:12:00,
2013-02-18 17:17:00,67.3,45.1,30.19,ESE,104,3.0,7.0,45,0.00,,,0.00,meteohub,2013-02-18 22:17:00,
2013-02-18 17:22:00,67.1,45.0,30.20,ESE,104,4.0,7.0,45,0.00,,,0.00,meteohub,2013-02-18 22:22:00,
2013-02-18 17:28:00,66.9,45.0,30.20,ESE,104,4.0,7.0,45,0.00,,,0.00,meteohub,2013-02-18 22:28:00,
2013-02-18 17:33:00,66.7,45.3,30.20,ESE,104,2.0,7.0,46,0.00,,,0.00,meteohub,2013-02-18 22:33:00,
2013-02-18 17:38:00,66.6,45.1,30.19,ESE,104,3.0,7.0,46,0.00,,,0.00,meteohub,2013-02-18 22:38:00,
2013-02-18 17:43:00,66.4,45.0,30.20,ESE,104,2.0,5.0,46,0.00,,,0.00,meteohub,2013-02-18 22:43:00,
2013-02-18 17:48:00,66.2,44.8,30.20,ESE,104,1.0,5.0,46,0.00,,,0.00,meteohub,2013-02-18 22:48:00,
2013-02-18 17:53:00,66.0,44.6,30.20,ESE,104,2.0,5.0,46,0.00,,,0.00,meteohub,2013-02-18 22:53:00,
2013-02-18 17:59:00,66.0,44.6,30.20,ESE,104,1.0,5.0,46,0.00,,,0.00,meteohub,2013-02-18 22:59:00,
2013-02-18 18:04:00,65.8,45.0,30.20,ESE,104,2.0,4.0,47,0.00,,,0.00,meteohub,2013-02-18 23:04:00,
2013-02-18 18:09:00,65.5,44.8,30.20,ESE,104,1.0,4.0,47,0.00,,,0.00,meteohub,2013-02-18 23:09:00,
2013-02-18 18:14:00,65.1,44.4,30.20,ESE,104,1.0,3.0,47,0.00,,,0.00,meteohub,2013-02-18 23:14:00,
2013-02-18 18:19:00,64.9,45.3,30.19,ESE,104,0.0,3.0,49,0.00,,,0.00,meteohub,2013-02-18 23:19:00,
2013-02-18 18:24:00,64.6,45.0,30.19,ESE,104,0.0,3.0,49,0.00,,,0.00,meteohub,2013-02-18 23:24:00,
2013-02-18 18:30:00,64.0,45.0,30.19,ESE,104,0.0,2.0,50,0.00,,,0.00,meteohub,2013-02-18 23:30:00,
2013-02-18 18:35:00,63.7,45.1,30.19,ESE,104,0.0,1.0,51,0.00,,,0.00,meteohub,2013-02-18 23:35:00,
2013-02-18 18:40:00,63.1,45.1,30.19,ESE,104,0.0,0.0,52,0.00,,,0.00,meteohub,2013-02-18 23:40:00,
2013-02-18 18:45:00,62.6,45.1,30.19,ESE,104,0.0,0.0,53,0.00,,,0.00,meteohub,2013-02-18 23:45:00,
2013-02-18 18:50:00,62.2,46.4,30.19,ESE,104,0.0,1.0,56,0.00,,,0.00,meteohub,2013-02-18 23:50:00,
2013-02-18 18:55:00,61.5,46.6,30.19,ESE,104,0.0,2.0,58,0.00,,,0.00,meteohub,2013-02-18 23:55:00,
2013-02-18 19:01:00,61.2,47.1,30.19,ESE,104,0.0,2.0,60,0.00,,,0.00,meteohub,2013-02-19 00:01:00,
2013-02-18 19:06:00,60.3,48.0,30.19,ESE,104,1.0,3.0,64,0.00,,,0.00,meteohub,2013-02-19 00:06:00,
2013-02-18 19:11:00,59.5,48.2,30.19,ESE,104,0.0,3.0,66,0.00,,,0.00,meteohub,2013-02-19 00:11:00,
2013-02-18 19:16:00,59.2,48.6,30.20,ESE,104,0.0,3.0,68,0.00,,,0.00,meteohub,2013-02-19 00:16:00,
2013-02-18 19:21:00,58.6,48.9,30.19,ESE,104,1.0,3.0,70,0.00,,,0.00,meteohub,2013-02-19 00:21:00,
2013-02-18 19:26:00,58.3,49.3,30.20,ESE,104,1.0,3.0,72,0.00,,,0.00,meteohub,2013-02-19 00:26:00,
2013-02-18 19:31:00,57.7,49.1,30.20,ESE,104,2.0,3.0,73,0.00,,,0.00,meteohub,2013-02-19 00:31:00,
2013-02-18 19:37:00,57.4,48.7,30.20,ESE,103,2.0,5.0,73,0.00,,,0.00,meteohub,2013-02-19 00:37:00,
2013-02-18 19:42:00,57.0,48.7,30.20,NE,47,2.0,5.0,74,0.00,,,0.00,meteohub,2013-02-19 00:42:00,
2013-02-18 19:47:00,56.8,48.6,30.20,NW,313,2.0,5.0,74,0.00,,,0.00,meteohub,2013-02-19 00:47:00,
2013-02-18 19:52:00,56.8,48.9,30.21,WNW,294,4.0,5.0,75,0.00,,,0.00,meteohub,2013-02-19 00:52:00,
2013-02-18 19:57:00,56.7,49.1,30.21,WNW,294,0.0,5.0,76,0.00,,,0.00,meteohub,2013-02-19 00:57:00,
2013-02-18 20:03:00,56.7,49.1,30.21,WNW,294,3.0,5.0,76,0.00,,,0.00,meteohub,2013-02-19 01:03:00,
2013-02-18 20:09:00,56.7,48.7,30.21,WNW,294,0.0,5.0,75,0.00,,,0.00,meteohub,2013-02-19 01:09:00,
2013-02-18 20:14:00,56.7,48.7,30.21,WNW,294,0.0,4.0,75,0.00,,,0.00,meteohub,2013-02-19 01:14:00,
2013-02-18 20:19:00,56.5,48.4,30.21,WNW,294,0.0,4.0,74,0.00,,,0.00,meteohub,2013-02-19 01:19:00,
2013-02-18 20:24:00,56.1,47.7,30.21,WNW,294,0.0,3.0,73,0.00,,,0.00,meteohub,2013-02-19 01:24:00,
2013-02-18 20:29:00,56.1,47.7,30.21,WNW,294,0.0,4.0,73,0.00,,,0.00,meteohub,2013-02-19 01:29:00,
2013-02-18 20:35:00,55.9,47.5,30.21,WNW,294,0.0,4.0,73,0.00,,,0.00,meteohub,2013-02-19 01:35:00,
2013-02-18 20:40:00,55.8,47.3,30.21,WNW,294,0.0,4.0,73,0.00,,,0.00,meteohub,2013-02-19 01:40:00,
2013-02-18 20:45:00,55.6,47.1,30.21,WNW,294,0.0,1.0,73,0.00,,,0.00,meteohub,2013-02-19 01:45:00,
2013-02-18 20:50:00,55.0,46.9,30.21,WNW,294,0.0,1.0,74,0.00,,,0.00,meteohub,2013-02-19 01:50:00,
2013-02-18 20:56:00,55.0,46.9,30.20,WNW,294,0.0,1.0,74,0.00,,,0.00,meteohub,2013-02-19 01:56:00,
2013-02-18 21:01:00,54.9,47.1,30.20,WNW,294,0.0,1.0,75,0.00,,,0.00,meteohub,2013-02-19 02:01:00,
2013-02-18 21:07:00,54.7,46.9,30.20,WNW,294,0.0,1.0,75,0.00,,,0.00,meteohub,2013-02-19 02:07:00,
2013-02-18 21:12:00,54.3,46.9,30.20,WNW,294,0.0,0.0,76,0.00,,,0.00,meteohub,2013-02-19 02:12:00,
2013-02-18 21:17:00,54.1,46.8,30.20,WNW,294,0.0,0.0,76,0.00,,,0.00,meteohub,2013-02-19 02:17:00,
2013-02-18 21:22:00,54.0,46.6,30.20,WNW,294,0.0,0.0,76,0.00,,,0.00,meteohub,2013-02-19 02:22:00,
2013-02-18 21:27:00,53.6,46.2,30.20,WNW,294,0.0,1.0,76,0.00,,,0.00,meteohub,2013-02-19 02:27:00,
2013-02-18 21:32:00,53.4,46.8,30.20,WNW,294,0.0,1.0,78,0.00,,,0.00,meteohub,2013-02-19 02:32:00,
2013-02-18 21:37:00,53.1,47.1,30.20,WNW,294,0.0,1.0,80,0.00,,,0.00,meteohub,2013-02-19 02:37:00,
2013-02-18 21:42:00,53.1,47.3,30.20,WNW,294,0.0,1.0,81,0.00,,,0.00,meteohub,2013-02-19 02:42:00,
2013-02-18 21:47:00,53.1,47.7,30.20,WNW,294,0.0,1.0,82,0.00,,,0.00,meteohub,2013-02-19 02:47:00,
2013-02-18 21:52:00,53.1,47.3,30.20,WNW,294,0.0,1.0,81,0.00,,,0.00,meteohub,2013-02-19 02:52:00,
2013-02-18 21:58:00,53.2,47.5,30.20,WNW,294,0.0,1.0,81,0.00,,,0.00,meteohub,2013-02-19 02:58:00,
2013-02-18 22:03:00,53.4,47.7,30.20,WNW,294,0.0,1.0,81,0.00,,,0.00,meteohub,2013-02-19 03:03:00,
2013-02-18 22:08:00,53.4,47.7,30.19,WNW,294,0.0,1.0,81,0.00,,,0.00,meteohub,2013-02-19 03:08:00,
2013-02-18 22:14:00,53.8,48.0,30.19,WNW,294,1.0,1.0,81,0.00,,,0.00,meteohub,2013-02-19 03:14:00,
2013-02-18 22:19:00,54.1,48.0,30.19,WNW,294,0.0,1.0,80,0.00,,,0.00,meteohub,2013-02-19 03:19:00,
2013-02-18 22:24:00,54.3,48.2,30.20,WNW,294,0.0,2.0,80,0.00,,,0.00,meteohub,2013-02-19 03:24:00,
2013-02-18 22:29:00,54.5,48.4,30.19,WNW,294,2.0,2.0,80,0.00,,,0.00,meteohub,2013-02-19 03:29:00,
2013-02-18 22:34:00,54.7,48.6,30.19,WNW,294,1.0,2.0,80,0.00,,,0.00,meteohub,2013-02-19 03:34:00,
2013-02-18 22:39:00,54.7,48.6,30.19,WNW,294,1.0,2.0,80,0.00,,,0.00,meteohub,2013-02-19 03:39:00,
2013-02-18 22:45:00,54.9,48.7,30.19,WNW,294,0.0,2.0,80,0.00,,,0.00,meteohub,2013-02-19 03:45:00,
2013-02-18 22:50:00,54.7,48.6,30.19,WNW,294,0.0,2.0,80,0.00,,,0.00,meteohub,2013-02-19 03:50:00,
2013-02-18 22:55:00,54.7,48.9,30.19,WNW,294,0.0,1.0,81,0.00,,,0.00,meteohub,2013-02-19 03:55:00,
2013-02-18 23:00:00,54.5,48.7,30.18,WNW,294,2.0,2.0,81,0.00,,,0.00,meteohub,2013-02-19 04:00:00,
2013-02-18 23:06:00,54.7,49.3,30.18,WNW,294,3.0,3.0,82,0.00,,,0.00,meteohub,2013-02-19 04:06:00,
2013-02-18 23:11:00,55.4,50.0,30.17,ESE,118,3.0,4.0,82,0.00,,,0.00,meteohub,2013-02-19 04:11:00,
2013-02-18 23:16:00,56.3,50.2,30.17,ESE,118,3.0,7.0,80,0.00,,,0.00,meteohub,2013-02-19 04:16:00,
2013-02-18 23:22:00,56.8,50.4,30.18,SE,136,2.0,7.0,79,0.00,,,0.00,meteohub,2013-02-19 04:22:00,
2013-02-18 23:27:00,57.2,50.4,30.18,ESE,119,2.0,7.0,78,0.00,,,0.00,meteohub,2013-02-19 04:27:00,
2013-02-18 23:32:00,57.6,50.4,30.18,ESE,119,3.0,7.0,77,0.00,,,0.00,meteohub,2013-02-19 04:32:00,
2013-02-18 23:37:00,57.6,50.4,30.18,SE,129,5.0,7.0,77,0.00,,,0.00,meteohub,2013-02-19 04:37:00,
2013-02-18 23:42:00,57.7,50.5,30.18,ESE,107,2.0,7.0,77,0.00,,,0.00,meteohub,2013-02-19 04:42:00,
2013-02-18 23:47:00,57.7,50.5,30.18,East,101,3.0,8.0,77,0.00,,,0.00,meteohub,2013-02-19 04:47:00,
2013-02-18 23:52:00,57.7,50.5,30.19,East,101,2.0,8.0,77,0.00,,,0.00,meteohub,2013-02-19 04:52:00,
2013-02-18 23:57:00,57.7,50.5,30.19,East,101,2.0,8.0,77,0.00,,,0.00,meteohub,2013-02-19 04:57:00,